Powrót do katalogu

STARLINK-3086

AktywnyŁącznośćVLEO
NORAD 49178·PAYLOAD·🇺🇸 United States

Wystrzelony Sep 14, 2021 z Vandenberg Space Force Base

Loading…

Następne Przeloty (najbliższe 24 godziny)

TLE

ŚwieżeSource: CelesTrak SupGP

Epoka: Sep 15, 2026, 01:38 UTC

1 49178C 21082BA  26258.06854167 -.00003276  00000+0 -27457-3 0  2587
2 49178  70.0020 176.9518 0002892 273.4403   9.8351 14.98331723    19

Śledź STARLINK-3086 w czasie rzeczywistym z AllMySat

Download on the App Store